Location: Hurstbourne Priors
(51.2000°N, 1.3667°W)
Time: 23:04:26
(UTC+00:00)

Altair - Pass Details

Date: 14 April 2021
Orbit: 1501 x 1683 km, 47.2° (Epoch: 13 May)

Event Time Altitude Azimuth Distance (km) Brightness Sun altitude
Rises 11:35:34 0° 277° (W) 4,756 10.0 47.9°
Reaches altitude 10° 11:38:43 10° 274° (W) 3,747 9.5 48.0°
Maximum altitude 11:47:57 62° 197° (SSW) 1,680 9.5 48.2°
Drops below altitude 10° 11:56:55 10° 119° (ESE) 3,651 9.9 48.4°
Sets 11:59:57 0° 116° (ESE) 4,628 10.3 48.4°
